sat.trackr.live / text

‹ back to catalog

TRANSPORTER-13 OBJECT AH

NORAD 63241 · 2025-052AH

PAYLOAD ACTIVE UNKNOWN

§ Identity

Operator
Country
TBD
Launch date
2025-03-15
Launch site
AFWTR
Launch vehicle
Mass (kg)
RCS (m²)

External: N2YO · Heavens-Above · Gunter

§ Orbital elements

Epoch: 2026-09-22T16:26:43.312128Z

Period
94.15 min
Inclination
97.3696°
Eccentricity
0.0007001
Mean motion
15.29429369 rev/d
Perigee alt
472.7 km
Apogee alt
482.3 km
Semi-major
6,855.7 km
B*
2.5256e-4
RAAN
158.2501°
Arg perigee
157.1342°
Mean anomaly
203.0212°
Rev number
8,483

§ Raw data

TRANSPORTER-13 OBJECT AH1 63241U 25052AH  26265.68522352  .00007136  00000+0  25256-3 0  99932 63241  97.3696 158.2501 0007001 157.1342 203.0212 15.29429369 84834

JSON: /api/v1/satellites/63241 · /tle

For live sub-satellite position, see the globe view (requires WebGL).

§ Visibility from observer

Set your observer location to see the next 7 days of passes ≥ 10°. The values pass through the URL so the page stays shareable.

No JS? Fill the form by hand. The geolocation button needs JavaScript.